Powrót do katalogu

TITAN 3C TRANSTAGE DEB

AktywnyHEO
NORAD 26777·DEBRIS·🇺🇸 United States

Wystrzelony Dec 21, 1965 z Cape Canaveral Space Force Station

Loading…

Następne Przeloty (najbliższe 24 godziny)

TLE

ŚwieżeSource: Space-Track

Epoka: Sep 13, 2026, 00:03 UTC

1 26777U 65108AV  26256.00232066 -.00000005  00000-0  00000-0 0  9995
2 26777  26.6768 162.1743 6692328 131.5814 356.1940  2.56629022 48294

Śledź TITAN 3C TRANSTAGE DEB w czasie rzeczywistym z AllMySat

Download on the App Store